Temp
7 6 8 8 7 9 7 6 7 7 6 5 4 5 5 -0 -1 -0 0 1 2 3 3 3 4 4 3 4 4 5 4 6 6 6 6 6 7 8 8 8 8 8 7 7
6 7 7 8 9 9 8 7 6 7 5 5 5 4 5 -1 -1 1 1 1 2 2 3 3 3 3 3 4 4 5 5 5 5 6 4 6 6 7 7 8 8 7 7 7
6 7 8 7 7 8 8 9 6 8 4 5 5 4 5 1 -0 1 1 2 2 3 3 3 3 3 2 3 4 4 4 4 4 5 5 5 5 6 7 7 7 7 7 7
6 7 7 7 7 7 7 6 7 5 6 7 5 7 5 4 1 -1 0 1 2 3 3 3 3 2 2 3 3 3 3 3 5 3 5 4 4 5 6 6 6 6 6 6
7 6 6 6 8 7 8 7 7 5 5 5 5 6 6 3 4 3 -1 2 4 4 3 4 3 3 2 2 2 2 2 3 4 4 4 4 3 3 5 5 5 5 5 6
6 7 8 8 8 8 8 7 6 6 5 6 7 5 8 7 6 7 3 5 6 5 5 3 3 3 2 1 1 1 1 1 1 2 3 4 3 2 4 4 4 4 4 5
7 7 7 8 7 7 7 6 7 6 5 7 6 4 8 6 8 9 9 8 10 4 3 2 2 1 1 1 1 1 0 1 1 1 2 3 2 1 2 3 3 3 4 3
6 7 7 7 8 7 6 7 7 7 7 6 5 5 7 7 9 10 11 9 9 4 2 1 2 1 1 1 1 1 1 1 1 0 1 0 0 0 0 1 2 2 2 2
6 6 7 7 9 9 5 6 7 7 7 6 5 4 6 4 4 3 5 6 5 2 0 -1 -1 -1 -1 -0 -0 0 0 0 0 -0 -0 0 0 0 -1 -1 -0 1 1 1
5 6 6 6 7 7 6 7 6 5 7 7 5 5 7 5 4 3 1 1 1 -1 -2 -3 -3 -3 -3 -2 -1 -1 -1 -1 -1 -0 -1 -0 -0 -0 -1 -3 -3 -1 0 -0
4 4 4 6 6 7 6 5 5 6 6 7 7 7 0 0 -2 -2 -0 -3 -4 -5 -5 -4 -5 -5 -4 -4 -3 -2 -2 -2 -2 -2 -2 -2 -1 -3 -3 -4 -5 -3 -1 -2
3 3 1 3 6 6 6 5 5 4 5 5 5 6 -1 -2 -3 -2 -5 -6 -5 -5 -6 -6 -6 -6 -6 -5 -5 -4 -3 -3 -3 -3 -3 -4 -4 -4 -5 -5 -7 -5 -3 -3
2 2 2 3 3 3 2 1 1 2 3 2 4 5 -1 -1 -3 -5 -7 -7 -8 -9 -9 -9 -9 -8 -7 -6 -6 -5 -5 -5 -5 -5 -5 -5 -6 -6 -7 -8 -7 -6 -5 -5
2 0 0 1 1 1 2 1 2 2 -0 0 2 1 3 2 2 -5 -7 -8 -9 -9 -9 -10 -10 -9 -9 -8 -7 -6 -6 -6 -6 -7 -6 -6 -7 -8 -9 -9 -8 -7 -6 -5
1 0 -0 1 1 1 1 1 2 0 0 -1 -0 1 1 2 2 -2 -5 -8 -10 -11 -10 -10 -10 -10 -10 -9 -8 -8 -8 -8 -7 -7 -8 -8 -9 -10 -10 -9 -7 -7 -6 -6
-3 -0 -0 -1 0 -0 -0 -1 -1 -1 -0 -1 -1 -1 0 -4 -4 -7 -8 -9 -11 -11 -11 -11 -10 -10 -9 -9 -8 -9 -9 -9 -9 -9 -9 -10 -11 -11 -11 -10 -9 -7 -8 -8
-2 -2 -3 -3 -5 -5 -7 -5 -1 0 0 -0 -0 -3 -6 -5 -5 -7 -8 -9 -10 -11 -12 -11 -10 -10 -10 -10 -9 -10 -10 -10 -10 -10 -11 -11 -12 -12 -10 -9 -9 -9 -8 -8
-5 -6 -7 -10 -8 -6 -4 -9 -7 -5 -4 -6 -6 -9 -11 -9 -8 -7 -7 -7 -9 -10 -12 -12 -11 -11 -11 -11 -11 -11 -11 -11 -12 -13 -12 -12 -12 -10 -10 -10 -10 -9 -9 -9
-4 -6 -10 -11 -10 -9 -5 -8 -8 -7 -5 -14 -14 -12 -12 -9 -9 -9 -9 -9 -9 -10 -11 -12 -12 -11 -12 -12 -12 -12 -13 -14 -13 -13 -12 -11 -11 -10 -10 -10 -10 -10 -10 -10
-5 -7 -8 -15 -11 -10 -8 -14 -16 -16 -9 -15 -16 -16 -16 -10 -10 -12 -11 -11 -11 -12 -12 -12 -13 -12 -13 -13 -13 -13 -14 -14 -14 -12 -12 -12 -12 -11 -11 -11 -11 -11 -11 -11
-8 -11 -7 -9 -7 -8 -15 -18 -15 -8 -7 -14 -14 -14 -13 -12 -12 -11 -12 -12 -12 -12 -13 -13 -13 -12 -13 -14 -14 -14 -14 -14 -13 -12 -12 -12 -12 -12 -11 -11 -12 -12 -12 -11
-8 -11 -8 -12 -11 -8 -14 -13 -8 -10 -13 -13 -13 -13 -13 -12 -12 -13 -14 -14 -14 -14 -15 -15 -14 -14 -14 -14 -14 -15 -14 -13 -13 -13 -12 -13 -12 -12 -12 -13 -13 -12 -12 -12
-9 -10 -11 -9 -9 -12 -11 -8 -9 -12 -14 -13 -14 -13 -14 -13 -14 -14 -15 -15 -15 -16 -16 -16 -14 -15 -15 -15 -15 -15 -15 -15 -15 -13 -13 -13 -13 -13 -13 -14 -13 -12 -13 -13
-14 -15 -14 -12 -13 -15 -10 -10 -11 -12 -13 -14 -14 -13 -14 -14 -15 -15 -16 -16 -16 -16 -16 -16 -15 -15 -16 -16 -15 -14 -16 -15 -14 -13 -13 -13 -13 -14 -15 -14 -14 -14 -14 -15
-13 -14 -17 -16 -14 -11 -10 -11 -12 -13 -14 -14 -14 -14 -14 -15 -16 -15 -16 -17 -17 -17 -17 -16 -16 -17 -17 -16 -16 -15 -14 -14 -14 -14 -14 -14 -15 -14 -14 -15 -15 -15 -16 -16
-16 -14 -13 -10 -12 -13 -12 -13 -13 -14 -14 -15 -15 -15 -15 -15 -16 -16 -17 -17 -17 -17 -17 -17 -17 -16 -16 -16 -15 -15 -14 -14 -14 -14 -14 -14 -14 -15 -15 -15 -17 -17 -17 -17
Height
1473 1474 1466 1471 1475 1473 1477 1479 1480 1478 1479 1484 1484 1483 1481 1488 1491 1491 1490 1490 1490 1492 1496 1498 1502 1504 1508 1511 1515 1519 1522 1525 1527 1531 1536 1540 1542 1544 1548 1548 1555 1556 1557 1559
1473 1467 1466 1467 1468 1471 1473 1477 1476 1476 1479 1482 1482 1482 1477 1481 1479 1477 1478 1481 1482 1486 1490 1493 1495 1498 1504 1507 1510 1515 1518 1520 1524 1528 1533 1536 1538 1544 1546 1547 1550 1554 1553 1558
1465 1461 1463 1467 1469 1471 1470 1470 1478 1474 1481 1484 1483 1481 1473 1472 1472 1472 1470 1472 1475 1476 1481 1483 1487 1493 1500 1500 1505 1511 1513 1519 1522 1524 1526 1533 1536 1541 1543 1546 1548 1550 1552 1555
1462 1458 1460 1463 1465 1468 1471 1468 1470 1477 1478 1476 1479 1465 1467 1464 1467 1465 1462 1463 1464 1469 1473 1476 1479 1488 1492 1496 1500 1505 1509 1514 1516 1522 1524 1529 1535 1539 1539 1543 1545 1545 1550 1552
1458 1457 1459 1461 1454 1463 1462 1464 1466 1473 1476 1478 1479 1475 1453 1459 1453 1447 1452 1451 1453 1457 1462 1465 1471 1480 1487 1491 1495 1499 1505 1509 1513 1519 1522 1527 1532 1536 1537 1539 1542 1546 1547 1547
1456 1454 1453 1451 1453 1455 1457 1462 1466 1468 1472 1460 1457 1467 1435 1445 1444 1442 1440 1440 1441 1445 1451 1458 1466 1474 1480 1485 1490 1495 1500 1505 1510 1514 1516 1523 1527 1532 1535 1535 1539 1543 1544 1544
1449 1447 1447 1447 1453 1454 1457 1461 1458 1459 1460 1446 1444 1460 1434 1432 1427 1424 1424 1425 1427 1436 1443 1448 1455 1463 1470 1477 1484 1490 1496 1501 1506 1512 1513 1518 1525 1529 1531 1533 1537 1538 1541 1543
1449 1442 1438 1436 1439 1443 1448 1449 1445 1440 1442 1444 1445 1440 1428 1418 1418 1418 1418 1420 1423 1429 1435 1441 1448 1455 1464 1473 1480 1487 1492 1497 1501 1508 1510 1515 1520 1524 1528 1531 1533 1535 1539 1542
1442 1439 1431 1431 1430 1436 1445 1443 1437 1438 1435 1438 1440 1435 1420 1418 1417 1417 1416 1416 1419 1424 1430 1437 1444 1452 1461 1467 1474 1482 1488 1493 1498 1506 1510 1514 1518 1521 1527 1530 1531 1531 1536 1541
1440 1436 1434 1433 1432 1433 1435 1435 1439 1438 1430 1422 1428 1429 1417 1417 1418 1412 1416 1414 1417 1421 1427 1433 1441 1450 1456 1464 1471 1478 1483 1489 1494 1502 1506 1511 1514 1516 1522 1525 1529 1530 1534 1540
1445 1445 1442 1434 1432 1430 1436 1434 1435 1431 1426 1415 1414 1416 1435 1430 1429 1426 1420 1421 1424 1425 1428 1432 1439 1446 1453 1461 1467 1473 1480 1486 1491 1499 1502 1507 1510 1516 1520 1524 1528 1530 1534 1540
1449 1447 1454 1443 1431 1430 1431 1433 1437 1440 1428 1424 1425 1414 1430 1432 1429 1427 1423 1425 1425 1428 1431 1435 1438 1444 1451 1457 1464 1470 1476 1483 1490 1494 1498 1503 1508 1513 1519 1522 1527 1532 1535 1539
1453 1449 1447 1442 1438 1436 1440 1448 1451 1448 1441 1438 1431 1420 1429 1425 1423 1427 1427 1427 1427 1431 1433 1437 1442 1447 1450 1457 1463 1468 1474 1480 1486 1491 1496 1501 1507 1511 1517 1522 1527 1532 1535 1539
1456 1456 1457 1453 1449 1447 1442 1442 1443 1447 1453 1448 1436 1436 1421 1423 1419 1423 1425 1425 1428 1428 1433 1437 1443 1448 1452 1457 1463 1468 1473 1479 1484 1489 1494 1500 1506 1512 1516 1522 1528 1531 1535 1538
1454 1453 1453 1446 1445 1444 1443 1439 1436 1443 1444 1447 1440 1433 1426 1420 1419 1418 1421 1423 1424 1428 1430 1433 1439 1445 1451 1457 1462 1467 1472 1476 1481 1486 1492 1499 1505 1512 1519 1525 1529 1531 1536 1539
1455 1450 1448 1447 1442 1442 1440 1441 1441 1437 1436 1435 1434 1426 1422 1418 1416 1418 1417 1420 1421 1424 1428 1430 1436 1444 1449 1454 1460 1466 1471 1476 1482 1487 1492 1498 1505 1513 1520 1524 1529 1532 1536 1540
1454 1452 1455 1446 1453 1453 1462 1448 1431 1425 1423 1422 1423 1424 1423 1419 1419 1418 1418 1419 1421 1424 1427 1429 1433 1439 1447 1453 1459 1465 1471 1477 1482 1487 1493 1500 1508 1514 1519 1523 1529 1533 1536 1540
1453 1459 1465 1474 1465 1463 1436 1436 1435 1431 1426 1424 1424 1426 1427 1424 1420 1418 1416 1416 1417 1420 1424 1429 1432 1437 1445 1452 1458 1464 1471 1477 1484 1490 1496 1502 1508 1514 1519 1524 1529 1533 1537 1541
1445 1455 1474 1483 1477 1458 1437 1435 1438 1435 1425 1433 1432 1427 1424 1421 1419 1416 1415 1415 1415 1417 1420 1427 1432 1437 1444 1451 1458 1464 1471 1479 1486 1491 1498 1503 1509 1514 1519 1524 1529 1533 1537 1541
1445 1449 1462 1492 1479 1474 1444 1444 1443 1443 1441 1433 1433 1430 1427 1423 1425 1417 1415 1415 1416 1418 1420 1424 1431 1438 1445 1452 1459 1465 1473 1481 1487 1493 1499 1505 1510 1515 1519 1524 1529 1533 1537 1540
1457 1464 1456 1462 1450 1449 1448 1445 1445 1443 1433 1433 1432 1430 1427 1426 1422 1418 1416 1416 1418 1419 1422 1426 1433 1437 1446 1454 1462 1467 1473 1483 1490 1495 1500 1506 1512 1516 1521 1526 1530 1534 1537 1540
1463 1471 1459 1466 1466 1448 1439 1443 1441 1435 1432 1431 1430 1428 1425 1423 1420 1418 1418 1418 1419 1421 1425 1431 1434 1438 1449 1455 1462 1469 1478 1485 1492 1496 1500 1507 1512 1517 1521 1525 1530 1534 1536 1539
1461 1459 1461 1453 1446 1435 1434 1432 1431 1430 1429 1428 1426 1425 1423 1422 1420 1420 1420 1420 1422 1426 1426 1434 1437 1442 1451 1459 1464 1471 1479 1486 1491 1496 1501 1508 1512 1517 1521 1526 1530 1532 1535 1538
1456 1454 1458 1452 1438 1431 1429 1429 1429 1428 1426 1425 1423 1422 1422 1421 1420 1421 1422 1423 1425 1428 1430 1437 1441 1446 1453 1461 1466 1469 1479 1486 1494 1498 1502 1508 1512 1516 1521 1526 1529 1532 1535 1538
1455 1453 1453 1449 1433 1428 1426 1424 1424 1424 1423 1421 1420 1420 1420 1420 1421 1421 1424 1425 1427 1430 1436 1441 1446 1450 1455 1463 1469 1474 1482 1487 1495 1499 1503 1507 1512 1517 1521 1526 1530 1533 1536 1539
1447 1444 1446 1435 1430 1429 1425 1423 1422 1420 1419 1419 1419 1419 1419 1420 1421 1422 1426 1428 1430 1436 1439 1445 1450 1454 1459 1466 1472 1478 1483 1489 1494 1498 1502 1508 1513 1517 1521 1525 1529 1536 1538 1541
Wind_Speed
5 4 15 12 10 5 6 6 7 3 6 6 8 8 8 15 16 18 24 29 31 32 30 29 29 29 28 28 28 29 28 29 29 30 25 23 22 18 14 13 8 2 1 1
3 13 11 7 10 11 5 5 7 2 3 6 2 10 8 10 12 25 29 29 35 33 33 32 31 29 29 28 28 30 31 32 32 33 28 25 22 22 18 17 13 9 5 3
6 4 9 6 4 10 10 15 5 5 3 1 1 6 7 7 13 16 29 31 31 36 38 37 34 32 31 29 29 30 30 30 32 33 29 27 24 23 21 19 17 14 11 7
6 5 5 9 10 11 15 7 7 6 5 8 6 10 7 6 9 11 21 30 37 36 37 38 37 37 34 31 29 30 30 30 29 28 31 25 25 24 22 20 18 16 14 11
5 5 6 8 19 9 12 8 10 5 7 2 3 5 7 3 9 11 15 35 41 41 39 40 40 38 35 33 31 30 31 31 29 27 28 27 24 22 21 19 17 16 15 12
5 2 4 7 5 13 3 2 3 3 4 11 15 11 17 11 10 6 8 33 40 42 42 41 38 38 36 34 33 32 31 30 31 30 29 30 26 24 22 19 18 17 14 13
4 9 5 5 4 1 8 5 4 4 5 7 12 11 17 7 14 22 19 29 37 38 42 43 42 41 40 38 36 33 32 30 28 27 27 28 25 23 21 20 19 17 15 15
4 6 10 8 16 9 13 10 6 7 4 5 2 7 9 12 22 27 33 23 21 32 39 43 45 43 42 39 36 34 32 30 27 27 27 26 25 23 22 22 21 18 16 16
5 7 1 3 6 10 4 10 14 11 12 5 4 6 8 5 7 4 17 19 18 26 33 39 41 41 40 39 36 34 32 29 28 27 27 25 24 23 22 22 21 20 19 17
2 7 1 4 3 4 11 4 3 5 5 8 5 5 7 3 9 9 7 15 19 24 29 34 38 41 39 38 35 33 31 30 30 29 28 27 28 26 26 23 21 20 19 18
1 3 5 2 4 6 3 2 3 3 4 3 2 3 4 5 5 8 5 6 13 21 28 32 35 37 37 38 36 34 32 30 29 29 28 28 26 27 25 24 22 20 20 18
3 3 3 8 8 1 1 4 2 4 6 4 6 3 2 5 5 8 5 5 13 18 23 27 33 36 37 38 35 34 33 32 30 29 29 28 28 27 25 23 22 21 20 19
4 3 5 8 2 4 3 3 1 6 3 6 6 3 4 1 5 5 3 7 12 16 22 26 29 34 37 36 36 35 33 31 30 29 29 28 27 26 26 24 23 22 19 18
7 1 5 8 8 4 11 2 2 3 3 6 8 12 19 6 8 3 6 10 14 20 25 27 30 33 35 36 34 33 32 31 30 29 28 28 28 27 26 25 23 21 20 18
2 6 4 9 12 12 13 16 12 9 9 8 7 15 15 13 8 5 14 16 19 22 27 31 33 35 34 34 33 32 32 31 31 31 30 29 28 26 25 25 24 22 20 18
0 10 7 9 11 11 15 11 9 13 12 13 15 21 14 7 5 2 14 19 22 25 29 34 35 34 35 34 33 32 31 31 30 31 32 31 30 29 27 24 22 21 20 18
3 3 2 12 3 4 5 8 16 10 9 7 11 7 4 5 5 3 12 18 21 24 29 34 37 38 36 34 33 33 33 32 32 32 31 30 29 28 26 24 23 21 19 17
5 2 1 3 3 7 6 3 1 3 8 6 7 3 5 7 9 9 10 17 20 23 27 32 38 39 36 35 33 34 34 33 31 32 34 32 29 28 27 25 22 20 18 16
12 3 1 2 4 6 9 4 2 3 6 3 3 6 9 8 9 4 4 10 16 21 25 31 36 38 37 34 34 34 35 35 35 33 31 31 30 29 26 24 21 19 16 13
4 3 3 2 3 5 6 3 3 0 4 2 1 4 5 9 2 3 4 9 14 19 24 32 36 37 36 35 35 36 36 34 33 33 32 30 27 26 25 22 20 16 11 9
3 2 6 5 6 6 3 3 4 3 4 5 7 11 11 3 5 8 6 10 12 17 25 30 36 38 36 35 35 36 35 34 33 33 31 29 26 25 22 17 14 12 11 10
2 1 3 1 1 5 9 3 2 1 4 9 10 10 11 11 8 6 10 13 16 21 25 32 39 39 37 37 36 35 35 34 32 32 32 30 26 22 20 16 15 13 11 10
3 5 3 5 5 1 9 9 10 14 13 11 10 12 10 9 7 9 13 15 17 24 29 34 38 39 37 36 35 37 36 36 35 33 30 27 24 21 18 15 14 14 12 11
4 2 3 4 6 7 9 14 15 15 15 13 13 12 9 11 11 12 15 20 25 27 29 34 38 40 39 37 39 38 38 35 32 31 28 25 23 20 17 16 15 14 13 12
4 2 3 6 10 17 9 6 9 11 12 11 9 8 10 12 13 17 20 23 25 28 32 35 39 40 38 37 35 35 34 32 30 28 26 24 20 19 19 17 17 16 13 10
8 6 4 6 4 5 8 10 12 10 9 7 6 9 9 12 16 20 23 24 27 32 35 36 37 38 37 35 34 33 31 30 30 28 23 20 21 21 20 22 22 13 11 10
Wind_Direction
208 189 207 194 204 216 181 185 199 228 179 153 205 243 211 198 211 225 223 220 221 224 225 223 221 220 217 213 211 214 208 208 201 195 190 185 184 182 181 167 176 225 25 142
134 230 216 209 203 221 193 208 228 193 159 177 121 255 250 177 215 220 219 219 225 223 224 225 223 220 220 215 213 214 215 212 201 203 193 191 188 191 190 182 181 188 161 188
191 211 189 200 179 226 237 233 205 217 130 257 7 263 248 221 232 233 232 234 231 226 223 222 222 220 218 214 212 214 212 215 208 207 201 195 195 196 193 193 182 182 177 190
239 217 190 201 222 192 239 191 189 175 178 242 172 273 225 211 234 224 225 223 231 229 227 228 221 219 216 213 210 209 209 205 215 211 203 199 200 200 196 197 192 187 190 191
231 192 185 203 223 183 245 180 200 197 215 176 192 258 255 192 242 231 215 228 233 231 225 224 222 221 215 210 207 206 205 205 199 209 209 205 203 202 201 196 199 193 191 192
243 227 193 226 181 199 180 102 347 153 201 236 226 211 255 235 250 260 220 233 235 228 225 224 223 219 217 212 209 206 206 205 201 200 203 213 203 205 200 195 196 192 193 191
188 221 209 187 179 257 194 160 233 228 200 243 211 202 238 268 229 229 235 231 237 225 219 217 215 213 210 210 208 205 205 204 206 208 201 204 202 201 200 199 196 190 192 191
222 267 190 198 204 191 199 201 219 258 212 235 176 217 246 234 217 228 239 250 240 220 216 215 213 211 208 207 206 206 206 205 204 203 204 199 200 201 197 195 192 187 190 189
221 242 199 168 229 198 178 213 232 253 244 262 214 286 303 212 240 241 224 234 214 208 209 208 208 209 206 203 203 203 204 204 204 205 204 202 203 205 203 194 186 183 184 182
303 264 227 295 78 248 206 158 185 200 242 245 193 226 245 216 247 238 226 213 200 198 197 200 202 203 201 199 199 198 200 201 199 201 199 201 199 197 196 189 183 178 177 177
76 256 284 24 208 225 149 266 244 274 239 278 290 212 31 328 332 317 336 136 179 186 192 193 195 198 196 195 195 195 195 197 197 196 195 194 194 190 189 181 177 173 173 171
33 317 283 232 262 294 7 222 253 279 299 318 337 203 327 289 12 338 77 144 184 194 191 192 192 191 190 191 191 191 192 194 195 192 191 184 184 180 177 171 168 167 166 164
354 316 326 329 350 28 46 34 300 295 304 267 259 260 200 37 42 7 122 168 174 182 182 184 187 187 188 188 189 189 189 189 188 185 183 180 175 170 167 167 163 164 163 164
303 263 227 259 265 289 290 254 160 186 216 271 268 303 304 314 312 218 210 193 193 185 186 183 184 186 186 187 188 186 185 185 182 178 176 173 168 164 163 164 166 163 160 160
228 257 249 251 254 263 263 282 277 236 247 245 267 260 272 276 278 225 228 191 190 190 189 187 186 184 184 185 184 184 182 179 177 173 170 165 159 157 160 161 158 157 157 155
263 269 276 270 268 256 257 256 271 271 254 252 250 263 252 302 326 203 200 195 188 192 194 191 188 187 187 187 184 182 179 175 174 169 164 159 158 162 163 163 161 159 154 147
229 236 252 269 327 344 315 218 235 246 235 232 252 241 357 323 334 281 220 211 204 202 200 196 191 187 188 185 183 178 174 170 167 162 159 158 158 160 159 159 156 152 148 144
236 138 78 264 18 261 256 286 292 274 274 294 306 326 295 292 304 298 261 231 213 207 202 198 192 186 183 182 178 175 170 166 158 158 158 160 163 162 158 156 153 148 146 142
214 178 259 187 216 310 326 323 334 149 287 177 257 301 302 310 308 286 260 229 224 212 205 201 193 186 181 178 174 169 163 161 164 164 162 161 160 158 155 152 149 144 143 144
73 125 143 89 189 230 240 316 358 161 292 338 265 298 308 336 337 279 200 221 203 202 202 194 187 181 176 174 172 168 164 163 163 162 160 157 157 155 151 149 148 153 155 146
351 14 224 235 257 274 278 273 349 115 277 327 323 309 314 281 260 299 218 199 212 203 195 190 183 176 174 170 169 164 159 162 163 158 155 153 154 154 153 157 151 147 156 162
211 224 273 6 248 259 189 110 223 210 290 292 308 316 303 293 276 228 193 186 184 184 176 182 174 169 169 167 164 159 161 159 157 158 158 157 157 162 157 155 155 159 159 156
262 195 226 196 245 321 198 242 257 289 288 296 295 308 303 249 216 200 184 180 175 173 171 175 171 164 164 163 162 160 163 165 165 160 160 167 164 159 154 156 161 159 153 148
292 164 208 37 280 257 277 265 275 274 281 291 286 285 257 238 206 186 174 167 167 170 168 171 167 160 158 163 169 168 165 166 168 169 165 162 161 154 155 160 156 153 147 143
206 128 202 263 279 292 292 304 288 280 284 289 278 255 245 222 192 184 172 169 168 166 166 168 165 159 160 167 166 169 169 170 170 164 159 157 155 159 156 151 149 145 135 129
193 209 185 264 263 244 285 313 312 299 291 289 261 228 214 211 190 178 173 171 167 162 161 161 163 164 162 166 170 168 167 168 167 164 159 157 161 158 157 155 141 124 111 112